Hourly Data Report for March 25, 2011

HALIFAX STANFIELD INT'L A
NOVA SCOTIA

44°52'48.060" N
63°30'00.050" W
145.40 m
8202250
71395
YHZ

Download Data

Hourly Data (March 2011)
Hourly Data Report for March 25, 2011
TIME
LST
Temp Definition
°C
Dew Point Definition
°C
Rel Hum Definition
%
Precip. Amount Definition
mm

Wind Dir Definition
10's deg

Wind Spd Definition
km/h
Visibility Definition
km
Stn Press Definition
kPa
Hmdx Definition


Wind Chill Definition


Weather Definition


00:00 -4.9 -8.6 75   32 30 24.1 98.24   -13 Mainly Clear
01:00 -4.8 -8.1 78   32 26 24.1 98.24   -12 Clear
02:00 -4.3 -7.4 79   32 26 24.1 98.25   -12 Mostly Cloudy
03:00 -4.5 -7.2 81   31 24 24.1 98.24   -12 Mainly Clear
04:00 -4.0 -7.0 80   32 24 24.1 98.26   -11 Mostly Cloudy
05:00 -3.7 -6.7 80   31 22 24.1 98.29   -10 Snow Showers
06:00 -3.6 -6.6 80   32 22 24.1 98.34   -10 Cloudy
07:00 -3.5 -6.8 78   29 22 24.1 98.37   -10 Cloudy
08:00 -2.9 -6.3 77   30 24 24.1 98.40   -10 Cloudy
09:00 -1.9 -6.3 72   30 32 24.1 98.41   -9 Mostly Cloudy
10:00 -0.6 -5.8 68   31 35 24.1 98.43   -8 Mostly Cloudy
11:00 0.0 -5.7 65   30 28 24.1 98.44   -6 Mostly Cloudy
12:00 0.1 -6.5 61   31 37 24.1 98.41     Mostly Cloudy
13:00 2.1 -6.2 54   31 32 24.1 98.43     Snow Showers
14:00 1.9 -5.1 60   28 20 24.1 98.42     Mostly Cloudy
15:00 -1.9 -3.7 87   35 28 1.2 98.47   -9 Snow Showers
16:00 -1.1 -4.0 81   35 15 19.3 98.50   -6 Snow Showers
17:00 -1.7 -5.2 77   33 7 3.2 98.53   -4 Snow Showers
18:00 -2.9 -4.3 90   31 13 0.8 98.60   -8 Moderate Snow Showers
19:00 -4.2 -5.9 88   32 6 19.3 98.67   -7 Snow Showers
20:00 -5.1 -6.6 89   26 9 24.1 98.71   -9 Mainly Clear
21:00 -4.7 -6.4 88   26 9 24.1 98.70   -9 Mainly Clear
22:00 -4.3 -6.0 88   26 9 24.1 98.67   -8 Mainly Clear
23:00 -5.2 -6.7 89   22 13 24.1 98.63   -10 Mainly Clear

Notes on Data Quality.

Legend

  • E = Estimated
  • M = Missing
  • NA = Not Available*
  • [empty] = Indicates an unobserved value
Date modified: